Weather History for Ohio State University, OH

Change the Weather History Date:

Friday, June 29, 2012

  Actual Average Record
Temperature  
Mean Temperature 82 °F -  
Max Temperature 98 °F 81 °F 98 °F (2012)
Min Temperature 68 °F 61 °F 52 °F (2004)
Cooling Degree Days 18    
Growing Degree Days 32 (Base 50)    
Moisture  
Dew Point 69 °F    
Average Humidity 69    
Maximum Humidity 94    
Minimum Humidity 43    
Precipitation  
Precipitation 0.86 in - - ()
Sea Level Pressure  
Sea Level Pressure 29.84 in    
Wind  
Wind Speed 9 mph (WNW)    
Max Wind Speed 33 mph    
Max Gust Speed 82 mph    
Visibility 10 miles    
Events Rain , Thunderstorm    
Averages and records for this station are not official NWS values.
T = Trace of Precipitation, MM = Missing Value Source: NWS Daily Summary

Daily Weather History Graph

Daily Weather History Graph

Search for Another Location

Airport:

Trip Planner

Search our weather history database for the weather conditions in past years. The results will help you decide how hot, cold, wet, or windy it might be!

Date:

Astronomy

Jun. 29, 2012 Rise Set
Actual Time 6:06 AM EDT 9:05 PM EDT
Civil Twilight 5:33 AM EDT 9:38 PM EDT
Nautical Twilight 4:51 AM EDT 10:19 PM EDT
Astronomical Twilight 4:03 AM EDT 11:08 PM EDT
Moon 4:49 PM EDT (6/29) 2:16 AM EDT (6/29)
Length of Visible Light 16h 04m
Length of Day
14h 59m
Waxing Gibbous, 77% of the Moon is Illuminated
Jun 29
Waxing Gibbous
Jul 3
Full
Jul 10
Last Quarter
Jul 19
New
Jul 26
First Quarter

Hourly Weather History & Observations

Time (EDT) Temp. Heat Index Dew Point Humidity Pressure Visibility Wind Dir Wind Speed Gust Speed Precip Events Conditions
12:53 AM 89.1 °F 94.1 °F 70.0 °F 53% 29.79 in 10.0 mi WNW 11.5 mph - N/A   Clear
1:53 AM 86.0 °F 90.7 °F 70.0 °F 59% 29.76 in 10.0 mi West 3.5 mph - N/A   Clear
2:53 AM 84.0 °F 89.0 °F 71.1 °F 65% 29.79 in 10.0 mi WNW 5.8 mph - N/A   Clear
3:53 AM 84.0 °F 89.0 °F 71.1 °F 65% 29.80 in 10.0 mi West 6.9 mph - N/A   Clear
4:53 AM 80.1 °F 83.6 °F 71.1 °F 74% 29.81 in 10.0 mi WNW 4.6 mph - N/A   Clear
5:53 AM 81.0 °F 85.2 °F 72.0 °F 74% 29.83 in 10.0 mi NNW 5.8 mph - N/A   Clear
6:53 AM 82.0 °F 86.3 °F 71.1 °F 69% 29.83 in 10.0 mi Calm Calm - N/A   Clear
7:53 AM 82.9 °F 87.5 °F 71.1 °F 67% 29.85 in 10.0 mi NNW 4.6 mph - N/A   Clear
8:53 AM 86.0 °F 91.5 °F 71.1 °F 61% 29.86 in 10.0 mi NNW 8.1 mph - 0.00 in   Clear
9:53 AM 88.0 °F 93.8 °F 71.1 °F 57% 29.88 in 10.0 mi NW 9.2 mph 16.1 mph N/A   Clear
10:53 AM 89.1 °F 92.1 °F 66.9 °F 48% 29.83 in 10.0 mi NE 4.6 mph - N/A   Clear
11:53 AM 91.0 °F 96.6 °F 70.0 °F 50% 29.84 in 10.0 mi SSW 8.1 mph - N/A   Clear
12:53 PM 93.9 °F 99.1 °F 69.1 °F 44% 29.81 in 10.0 mi SW 9.2 mph - N/A   Clear
1:53 PM 95.0 °F 101.3 °F 70.0 °F 44% 29.83 in 10.0 mi WSW 8.1 mph - N/A   Clear
2:53 PM 96.1 °F 103.5 °F 71.1 °F 44% 29.81 in 10.0 mi WNW 13.8 mph 21.9 mph N/A   Scattered Clouds
3:53 PM 97.0 °F 104.8 °F 71.1 °F 43% 29.78 in 10.0 mi West 11.5 mph 16.1 mph N/A   Mostly Cloudy
4:53 PM 93.0 °F 100.7 °F 72.0 °F 50% 29.81 in 10.0 mi West 28.8 mph 50.6 mph N/A Thunderstorm Thunderstorm
5:00 PM 71.6 °F - 66.2 °F 83% 29.93 in 10.0 mi NW 32.2 mph 81.7 mph 0.08 in Thunderstorm Unknown
5:06 PM 68.0 °F - 66.2 °F 94% 29.89 in 10.0 mi NNW 33.4 mph 61.0 mph 0.45 in Rain , Thunderstorm Heavy Thunderstorms and Rain
5:18 PM 69.8 °F - 66.2 °F 88% 29.91 in 10.0 mi NNW 19.6 mph 46.0 mph 0.72 in Rain , Thunderstorm Heavy Thunderstorms and Rain
5:31 PM 69.8 °F - 66.2 °F 88% 29.96 in 10.0 mi NW 17.3 mph 28.8 mph 0.74 in Rain , Thunderstorm Light Thunderstorms and Rain
5:53 PM 70.0 °F - 66.0 °F 87% 29.96 in 10.0 mi NW 12.7 mph 20.7 mph 0.75 in Rain , Thunderstorm Light Thunderstorms and Rain
6:53 PM 70.0 °F - 66.9 °F 90% 29.87 in 10.0 mi SE 10.4 mph - 0.10 in Rain Light Rain
7:53 PM 70.0 °F - 66.9 °F 90% 29.78 in 10.0 mi NW 4.6 mph - 0.01 in   Clear
8:53 PM 71.1 °F - 66.9 °F 87% 29.81 in 10.0 mi West 5.8 mph - N/A   Clear
9:53 PM 70.0 °F - 66.0 °F 87% 29.82 in 10.0 mi WSW 5.8 mph - N/A   Clear
10:53 PM 68.0 °F - 64.9 °F 90% 29.86 in 10.0 mi West 5.8 mph - N/A   Clear
11:53 PM 68.0 °F - 64.9 °F 90% 29.86 in 10.0 mi SW 4.6 mph - N/A   Clear